Aberdeen / Amory, MS

3:23 PM CDT on April 24, 2017 (GMT -0500)
Aberdeen / Amory

Weather History for KM40 - March, 2013

Change the Weather History Date:

Friday, March 1, 2013

  Actual Average (KCBM) Record (KCBM)
Temperature  
Mean Temperature 35 °F -  
Max Temperature 42 °F 59 °F 82 °F (1997)
Min Temperature 28 °F 40 °F 26 °F (2002)
Degree Days  
Heating Degree Days 30    
Moisture  
Dew Point 31 °F    
Average Humidity 85    
Maximum Humidity 100    
Minimum Humidity 70    
Precipitation  
Precipitation 0.00 in - - ()
Sea Level Pressure  
Sea Level Pressure 30.13 in    
Wind  
Wind Speed 3 mph (WNW)    
Max Wind Speed 12 mph    
Max Gust Speed 17 mph    
Visibility 8 miles    
Events      
Averages and records for this station are not official NWS values.
T = Trace of Precipitation, MM = Missing Value Source: NWS Daily Summary

Daily Weather History Graph

Daily Weather History Graph

Search for Another Location

Airport or City:

Trip Planner

Search our weather history database for the weather conditions in past years. The results will help you decide how hot, cold, wet, or windy it might be!

Date:

Astronomy

Mar. 01, 2013 Rise Set
Actual Time 6:22 AM CST 5:50 PM CST
Civil Twilight 5:57 AM CST 6:15 PM CST
Nautical Twilight 5:28 AM CST 6:44 PM CST
Astronomical Twilight 4:59 AM CST 7:13 PM CST
Moon 10:08 PM CST (3/1) 8:22 AM CST (3/1)
Length of Visible Light 12h 18m
Length of Day
11h 28m
Waning Gibbous, 83% of the Moon is Illuminated
Mar 1
Waning Gibbous
Mar 4
Last Quarter
Mar 11
New
Mar 19
First Quarter
Mar 27
Full

Hourly Weather History & Observations

Time (CST) Temp. Windchill Dew Point Humidity Pressure Visibility Wind Dir Wind Speed Gust Speed Precip Events Conditions
12:15 AM 32.0 °F - 32.0 °F 100% 30.09 in 10.0 mi Calm Calm - N/A   Clear
12:35 AM 30.2 °F - 30.2 °F 100% 30.09 in 8.0 mi Calm Calm - N/A   Clear
12:55 AM 30.2 °F - 30.2 °F 100% 30.10 in 8.0 mi Calm Calm - N/A   Clear
1:15 AM 30.2 °F - 30.2 °F 100% 30.10 in 7.0 mi Calm Calm - N/A   Clear
1:35 AM 30.2 °F - 30.2 °F 100% 30.10 in 5.0 mi Calm Calm - N/A   Clear
1:55 AM 30.2 °F - 28.4 °F 93% 30.11 in 8.0 mi Calm Calm - N/A   Clear
2:15 AM 28.4 °F - 28.4 °F 100% 30.11 in 5.0 mi Calm Calm - N/A   Clear
2:35 AM 30.2 °F - 30.2 °F 100% 30.10 in 5.0 mi Calm Calm - N/A   Clear
2:55 AM 30.2 °F - 28.4 °F 93% 30.10 in 5.0 mi Calm Calm - N/A   Mostly Cloudy
3:15 AM 30.2 °F - 30.2 °F 100% 30.10 in 6.0 mi Calm Calm - N/A   Overcast
3:35 AM 30.2 °F - 28.4 °F 93% 30.09 in 7.0 mi Calm Calm - N/A   Scattered Clouds
3:55 AM 30.2 °F - 26.6 °F 86% 30.09 in 8.0 mi Calm Calm - N/A   Clear
4:15 AM 30.2 °F - 28.4 °F 93% 30.09 in 8.0 mi Calm Calm - N/A   Clear
4:35 AM 32.0 °F - 26.6 °F 80% 30.09 in 8.0 mi Calm Calm - N/A   Scattered Clouds
4:55 AM 30.2 °F - 28.4 °F 93% 30.10 in 8.0 mi Calm Calm - N/A   Mostly Cloudy
5:15 AM 30.2 °F - 26.6 °F 86% 30.10 in 7.0 mi Calm Calm - N/A   Overcast
5:35 AM 30.2 °F - 28.4 °F 93% 30.10 in 7.0 mi Calm Calm - N/A   Mostly Cloudy
5:55 AM 32.0 °F - 28.4 °F 87% 30.10 in 8.0 mi Calm Calm - N/A   Overcast
6:15 AM 32.0 °F - 28.4 °F 87% 30.11 in 7.0 mi Calm Calm - N/A   Overcast
6:35 AM 32.0 °F - 30.2 °F 93% 30.11 in 7.0 mi Calm Calm - N/A   Overcast
6:55 AM 32.0 °F - 30.2 °F 93% 30.11 in 5.0 mi Calm Calm - N/A   Overcast
7:15 AM 33.8 °F - 30.2 °F 87% 30.12 in 5.0 mi Calm Calm - N/A   Haze
7:35 AM 33.8 °F - 30.2 °F 87% 30.13 in 6.0 mi Calm Calm - N/A   Overcast
7:55 AM 33.8 °F 30.8 °F 32.0 °F 93% 30.13 in 7.0 mi NW 3.5 mph - N/A   Overcast
8:15 AM 35.6 °F 32.8 °F 32.0 °F 87% 30.14 in 7.0 mi WNW 3.5 mph - N/A   Overcast
8:35 AM 35.6 °F 29.9 °F 32.0 °F 87% 30.14 in 8.0 mi NW 6.9 mph - N/A   Overcast
8:55 AM 37.4 °F 32.1 °F 32.0 °F 81% 30.14 in 9.0 mi WNW 6.9 mph - N/A   Overcast
9:15 AM 37.4 °F 30.8 °F 33.8 °F 87% 30.15 in 10.0 mi West 9.2 mph - N/A   Overcast
9:35 AM 39.2 °F 32.0 °F 33.8 °F 81% 30.14 in 10.0 mi WNW 11.5 mph - N/A   Overcast
9:55 AM 37.4 °F 30.3 °F 32.0 °F 81% 30.14 in 10.0 mi WNW 10.4 mph - N/A   Overcast
10:15 AM 39.2 °F 35.0 °F 32.0 °F 75% 30.15 in 9.0 mi WNW 5.8 mph - N/A   Overcast
10:35 AM 39.2 °F 33.0 °F 32.0 °F 75% 30.15 in 9.0 mi NW 9.2 mph - N/A   Mostly Cloudy
10:55 AM 41.0 °F 34.7 °F 32.0 °F 70% 30.15 in 9.0 mi WNW 10.4 mph 16.1 mph N/A   Overcast
11:15 AM 41.0 °F 35.2 °F 32.0 °F 70% 30.15 in 10.0 mi NW 9.2 mph - N/A   Overcast
11:35 AM 41.0 °F 34.3 °F 33.8 °F 76% 30.14 in 10.0 mi WNW 11.5 mph - N/A   Overcast
11:55 AM 42.8 °F 38.6 °F 33.8 °F 70% 30.13 in 9.0 mi WNW 6.9 mph - N/A   Overcast
12:15 PM 42.8 °F 37.0 °F 33.8 °F 70% 30.13 in 9.0 mi West 10.4 mph - N/A   Mostly Cloudy
12:35 PM 39.2 °F 32.5 °F 32.0 °F 75% 30.13 in 10.0 mi NW 10.4 mph - N/A   Overcast
12:55 PM 39.2 °F 32.5 °F 32.0 °F 75% 30.13 in 8.0 mi West 10.4 mph 17.3 mph N/A   Overcast
1:15 PM 39.2 °F 32.0 °F 32.0 °F 75% 30.12 in 9.0 mi WNW 11.5 mph 16.1 mph N/A   Overcast
1:55 PM 39.2 °F 32.5 °F 32.0 °F 75% 30.11 in 9.0 mi NW 10.4 mph - N/A   Overcast
2:35 PM 39.2 °F 33.0 °F 32.0 °F 75% 30.11 in 9.0 mi WNW 9.2 mph - N/A   Overcast
2:55 PM 39.2 °F 32.5 °F 32.0 °F 75% 30.11 in 9.0 mi WNW 10.4 mph - N/A   Overcast
3:15 PM 39.2 °F 33.0 °F 32.0 °F 75% 30.11 in 9.0 mi WNW 9.2 mph - N/A   Overcast
3:35 PM 39.2 °F 34.2 °F 32.0 °F 75% 30.11 in 9.0 mi WNW 6.9 mph - N/A   Overcast
3:55 PM 39.2 °F 33.0 °F 32.0 °F 75% 30.11 in 8.0 mi NW 9.2 mph - N/A   Overcast
4:15 PM 37.4 °F 30.8 °F 32.0 °F 81% 30.11 in 8.0 mi WNW 9.2 mph - N/A   Overcast
4:35 PM 37.4 °F 32.8 °F 32.0 °F 81% 30.11 in 8.0 mi WNW 5.8 mph - N/A   Overcast
5:15 PM 37.4 °F 33.8 °F 32.0 °F 81% 30.12 in 8.0 mi WNW 4.6 mph - N/A   Overcast
5:35 PM 37.4 °F 32.1 °F 32.0 °F 81% 30.13 in 9.0 mi WNW 6.9 mph - N/A   Overcast
5:55 PM 37.4 °F 32.8 °F 32.0 °F 81% 30.13 in 8.0 mi NW 5.8 mph - N/A   Overcast
6:15 PM 37.4 °F 33.8 °F 32.0 °F 81% 30.14 in 10.0 mi NW 4.6 mph - N/A   Overcast
6:35 PM 37.4 °F 32.8 °F 33.8 °F 87% 30.15 in 10.0 mi NW 5.8 mph - N/A   Overcast
6:55 PM 37.4 °F 33.8 °F 33.8 °F 87% 30.15 in 10.0 mi WNW 4.6 mph - N/A   Overcast
7:15 PM 37.4 °F 33.8 °F 33.8 °F 87% 30.15 in 10.0 mi WNW 4.6 mph - N/A   Mostly Cloudy
7:35 PM 37.4 °F 32.8 °F 33.8 °F 87% 30.16 in 10.0 mi WNW 5.8 mph - N/A   Mostly Cloudy
8:15 PM 35.6 °F 30.7 °F 32.0 °F 87% 30.16 in 10.0 mi NW 5.8 mph - N/A   Mostly Cloudy
8:35 PM 35.6 °F 30.7 °F 32.0 °F 87% 30.16 in 10.0 mi NW 5.8 mph - N/A   Mostly Cloudy
8:55 PM 35.6 °F 31.7 °F 32.0 °F 87% 30.16 in 10.0 mi WNW 4.6 mph - N/A   Mostly Cloudy
9:15 PM 35.6 °F 29.9 °F 33.8 °F 93% 30.16 in 10.0 mi NW 6.9 mph - N/A   Mostly Cloudy
9:35 PM 35.6 °F 30.7 °F 32.0 °F 87% 30.17 in 10.0 mi NW 5.8 mph - N/A   Mostly Cloudy
9:55 PM 35.6 °F 29.9 °F 32.0 °F 87% 30.17 in 10.0 mi WNW 6.9 mph - N/A   Scattered Clouds
10:15 PM 35.6 °F 30.7 °F 32.0 °F 87% 30.16 in 10.0 mi NW 5.8 mph - N/A   Mostly Cloudy
10:55 PM 35.6 °F 30.7 °F 32.0 °F 87% 30.16 in 10.0 mi NW 5.8 mph - N/A   Mostly Cloudy
11:15 PM 35.6 °F 29.9 °F 32.0 °F 87% 30.16 in 10.0 mi WNW 6.9 mph - N/A   Mostly Cloudy
11:35 PM 35.6 °F 29.9 °F 32.0 °F 87% 30.16 in 9.0 mi NW 6.9 mph - N/A   Mostly Cloudy
11:55 PM 35.6 °F 29.9 °F 32.0 °F 87% 30.16 in 10.0 mi NW 6.9 mph - N/A   Mostly Cloudy